Weather in Kalininets

Russia / Moscow Oblast     55°33′35″N   36°58′54″E
temp.,
°C
wind,
m/s
gust,
m/s
humid.,
%
clouds,
%
prec.,
mm/h
press.,
hPa
HPBL,
m
24 february, wed
wed2400:00−21sse3691100 0.0 1044193
03:00−20s3889100 0.0 1042274
06:00−18s4889100 0.0 1039288
09:00−17sse4894100 0.4 1037325
12:00−14s4993100 0.4 1035450
15:00−11ssw4890100 0.8 1033551
18:00−13ssw3893100 0.2 1031488
21:00−13ssw3993100 0.3 1029356
25 february, thu
thu2500:00−11sw3894100 0.1 1026324
03:00−9sw4995100 0.8 1023288
06:00−4sw61395100 1.3 1018518
09:00+2wsw514100100 2.0 1015487
12:00+3wnw513100100 0.6 1014545
15:00+3wnw414100100 0.7 1015572
18:00+2w31099100 0.1 1015347
21:00+2w31099100 0.1 1016315
26 february, fri
fri2600:00+2w41299100 0.5 1015377
03:00+3w41299100 1.6 1014418
06:00+3wsw51298100 0.6 1011457
09:00+3wsw51398100 0.9 1009542
12:00+3wsw51397100 0.1 1006477
15:00+4w71596100 0.9 1005916
18:00+3w6148794 0.1 10041102
21:00+1wnw7158795 0.1 10051036
27 february, sat
sat2700:00+1wnw6148793 0.0 1005855
03:00−1w5149171 0.0 1005625
06:000wnw5119570 0.0 1003685
09:000wnw489785 0.1 1004605
12:00+1nw4892100 0.0 1004700
15:00+1nw4894100 0.1 1006631
18:000nw3997100 0.1 1008555
21:00−1nw4109696 0.3 1010534
28 february, sun
sun2800:00−2nnw5109595 0.3 1011666
03:00−2nnw4119397 0.6 1013671
06:00−4nnw41192100 0.1 1015604
09:00−4nnw4990100 0.2 1016619
12:00−2nnw478199 0.1 1017781
15:00−2nnw4782100 0.1 1019805
18:00−3nnw3789100 0.1 1020617
21:00−3n3687100 0.2 1023553